Tracking 29892 objects as of 21-Nov-2024
HD Live streaming from Space Station
objects crossing your sky now

CZ-6A DEB

Track CZ-6A DEB now!
10-day predictions


NORAD ID: 56639
Int'l Code: 2022-151AFP
Perigee: 777.2 km
Apogee: 833.9 km
Inclination: 98.8 °
Period: 100.8 minutes
Semi major axis: 7176 km
RCS: Unknown
Launch date: November 11, 2022
Source: People's Republic of China (PRC)
Launch site: Taiyaun Space Center, China (TSC)

Note: This is SATELLITE DEBRIS
Your satellite tracking list
Your tracking list is empty




NASA's NSSDC Master Catalog

Two Line Element Set (TLE):
1 56639U 22151AFP 24319.52571966  .00001000  00000-0  41807-3 0  9994
2 56639  98.8103 342.0976 0039501 265.8854  93.7811 14.28015831 81581
Source of the keplerian elements: AFSPC